Orbital Elements at Epoch 2459200.5 (2020-Dec-17.0) TDB
Reference: JPL 23 (heliocentric ecliptic J2000)
Element | Value | Uncertainty (1-sigma) | Units |
e | .1413742422902858 | 3.8262e-08 | |
a | 2.367539412700643 | 7.9106e-09 | au |
q | 2.032830322137701 | 9.0491e-08 | au |
i | 5.914409511521789 | 4.1641e-06 | deg |
node | 222.2463403564832 | 3.2066e-05 | deg |
peri | 155.5691027331867 | 3.4617e-05 | deg |
M | 25.08174955076147 | 1.1636e-05 | deg |
tp | 2459107.795763962814 (2020-Sep-15.29576396) | 4.3028e-05 | TDB |
period | 1330.589993566612 3.64 | 6.6688e-06 1.826e-08 | d yr |
n | .270556671657382 | 1.356e-09 | deg/d |
Q | 2.702248503263584 | 9.029e-09 | au |
|
| | Orbit Determination Parameters
Additional Information
|